Date_and_time,latitude,longitude,wind_speed,RelWindDirFrom,WindDirFrom,air_pressure,air_temperature,relative_humidity,Temp,platform_speed_wrt_ground,air_pressure_at_mean_sea_level,platform_orientation
2018-04-17 00:00,50.6304183333333,-96.98076,9.8,11.2,9,993.51,4.7,31,3.37,0.0,1021.05,155.7
2018-04-17 00:10,50.6304266666667,-96.9807666666667,9.2,10.5,10,993.42,4.1,37,3.38,0.0,1020.99,155.7
2018-04-17 00:20,50.630425,-96.9807633333333,8.7,10.1,10,993.37,3.9,37,3.38,0.0,1020.93,155.7
2018-04-17 00:30,50.6304266666667,-96.980765,10.1,11.0,17,993.22,3.3,44,3.40,0.0,1020.79,155.7
2018-04-17 00:40,50.6304266666667,-96.9807616666667,10.8,11.5,17,993.16,2.3,52,3.41,0.0,1020.81,155.7
2018-04-17 00:50,50.6304283333333,-96.9807633333333,10.6,11.5,19,993.23,1.9,54,3.42,0.0,1020.90,155.7
2018-04-17 01:00,50.6304283333333,-96.9807633333333,9.4,11.0,23,993.10,1.1,64,3.44,0.0,1020.78,270.0
2018-04-17 01:10,50.630425,-96.9808083333333,7.7,8.4,20,993.21,0.3,71,3.44,0.0,1020.97,270.0
2018-04-17 01:20,50.6304166666667,-96.9807816666667,8.1,8.8,25,993.20,0.1,70,3.45,0.0,1020.98,270.0
2018-04-17 01:30,50.6304116666667,-96.98077,8.6,9.2,31,993.10,-0.0,70,3.46,0.0,1020.89,270.0
2018-04-17 01:40,50.6304116666667,-96.9807683333333,7.5,8.5,34,993.06,0.0,67,3.47,0.0,1020.83,270.0
2018-04-17 01:50,50.630415,-96.9807666666667,6.9,9.5,33,993.23,0.0,67,3.47,0.0,1021.00,270.0
2018-04-17 02:00,50.630415,-96.98077,6.1,7.2,33,993.47,-0.4,71,3.48,0.0,1021.30,360.0
2018-04-17 02:10,50.630425,-96.980795,6.9,7.8,53,993.66,-0.1,68,3.48,0.0,1021.50,360.0
2018-04-17 02:20,50.6304233333333,-96.9807866666667,7.1,8.2,54,993.94,0.0,69,3.49,0.0,1021.81,360.0
2018-04-17 02:30,50.63044,-96.9807783333333,7.1,7.7,63,994.05,0.1,68,3.49,0.0,1021.96,360.0
2018-04-17 02:40,50.6304366666667,-96.9807733333333,6.8,7.6,64,994.09,0.0,69,3.49,0.0,1022.03,360.0
2018-04-17 02:50,50.6304416666667,-96.9807666666667,5.8,8.4,59,994.20,-0.2,70,3.50,0.0,1022.20,360.0
2018-04-17 03:00,50.6304416666667,-96.9807633333333,4.5,5.5,56,994.32,-0.6,73,3.51,0.0,1022.38,346.7
2018-04-17 03:10,50.6304166666667,-96.9807716666667,4.3,5.6,65,994.36,-0.7,71,3.51,0.0,1022.44,346.7
2018-04-17 03:20,50.6304216666667,-96.9807683333333,8.1,11.2,77,994.30,-0.3,63,3.52,0.0,1022.36,346.7
2018-04-17 03:30,50.630425,-96.9807666666667,10.1,11.1,77,994.22,0.4,57,3.52,0.0,1022.24,346.7
2018-04-17 03:40,50.6304233333333,-96.9807633333333,10.5,11.2,79,994.21,0.3,56,3.52,0.0,1022.24,346.7
2018-04-17 03:50,50.630435,-96.98077,8.8,10.4,77,994.29,-0.0,60,3.51,0.0,1022.36,346.7
2018-04-17 04:00,50.63043,-96.9807566666667,7.5,8.1,75,994.39,-0.8,66,3.52,0.0,1022.48,90.0
2018-04-17 04:10,50.6304316666667,-96.980765,8.1,8.8,78,994.45,-0.8,63,3.52,0.0,1022.53,90.0
2018-04-17 04:20,50.63042,-96.980755,8.1,9.1,81,994.47,-0.4,59,3.51,0.0,1022.54,90.0
2018-04-17 04:30,50.6304333333333,-96.980775,8.5,9.2,84,994.46,-0.4,58,3.50,0.0,1022.53,90.0
2018-04-17 04:40,50.630425,-96.9807666666667,8.5,9.2,83,994.50,-0.8,61,3.50,0.0,1022.60,90.0
2018-04-17 04:50,50.6304216666667,-96.9807666666667,8.0,9.6,83,994.49,-0.9,61,3.49,0.0,1022.62,90.0
2018-04-17 05:00,50.6304216666667,-96.9807666666667,10.2,11.5,84,994.45,-0.7,57,3.49,0.0,1022.57,360.0
2018-04-17 05:10,50.630405,-96.980785,10.4,11.4,82,994.51,-0.4,55,3.49,0.0,1022.60,360.0
2018-04-17 05:20,50.6304183333333,-96.9807733333333,9.2,9.6,81,994.55,-0.7,56,3.50,0.0,1022.62,360.0
2018-04-17 05:30,50.6304233333333,-96.9807683333333,8.1,9.2,83,994.55,-0.9,57,3.50,0.0,1022.64,360.0
2018-04-17 05:40,50.6304216666667,-96.9807633333333,7.1,7.8,85,994.56,-1.1,58,3.48,0.0,1022.68,360.0
2018-04-17 05:50,50.6304216666667,-96.9807633333333,3.8,6.9,79,994.69,-1.4,61,3.48,0.0,1022.87,360.0
2018-04-17 06:00,50.63042,-96.980765,2.2,6.1,61,994.81,-1.7,60,3.48,0.0,1023.00,154.3
2018-04-17 06:10,50.63042,-96.9807666666667,5.1,6.7,66,994.85,-0.6,49,3.47,0.0,1022.97,154.3
2018-04-17 06:20,50.6304183333333,-96.9807666666667,4.4,5.1,65,994.84,-0.9,53,3.47,0.0,1022.96,154.3
2018-04-17 06:30,50.630425,-96.9807716666667,3.5,4.3,54,994.77,-1.4,57,3.47,0.0,1022.94,154.3
2018-04-17 06:40,50.6304166666667,-96.98077,1.6,3.3,65,994.77,-1.5,56,3.47,0.0,1022.95,154.3
2018-04-17 06:50,50.6304233333333,-96.9807666666667,1.8,3.0,87,994.73,-1.3,53,3.47,0.0,1022.89,154.3
2018-04-17 07:00,50.630425,-96.9807616666667,3.3,4.1,80,994.71,-1.1,51,3.46,0.0,1022.84,90.0
2018-04-17 07:10,50.6304316666667,-96.98076,3.2,4.0,74,994.66,-1.3,55,3.47,0.0,1022.82,90.0
2018-04-17 07:20,50.6304266666667,-96.98076,2.2,3.5,44,994.65,-1.9,58,3.47,0.0,1022.85,90.0
2018-04-17 07:30,50.6304216666667,-96.9807616666667,2.5,3.4,27,994.57,-2.1,58,3.46,0.0,1022.79,90.0
2018-04-17 07:40,50.63042,-96.9807633333333,2.0,3.1,29,994.55,-2.2,58,3.45,0.0,1022.79,90.0
2018-04-17 07:50,50.6304166666667,-96.980765,1.8,3.1,33,994.52,-2.1,56,3.45,0.0,1022.78,90.0
2018-04-17 08:00,50.6304166666667,-96.980765,1.8,3.0,33,994.46,-2.0,54,3.45,0.0,1022.65,360.0
2018-04-17 08:10,50.630415,-96.9807666666667,3.4,5.0,43,994.35,-1.8,54,3.45,0.0,1022.54,360.0
2018-04-17 08:20,50.630415,-96.980765,3.8,5.0,34,994.24,-2.2,56,3.45,0.0,1022.47,360.0
2018-04-17 08:30,50.630415,-96.9807666666667,4.5,5.3,29,994.09,-2.7,59,3.44,0.0,1022.35,360.0
2018-04-17 08:40,50.630415,-96.980765,3.8,5.0,36,994.11,-2.9,59,3.43,0.0,1022.36,360.0
2018-04-17 08:50,50.630415,-96.9807633333333,3.5,4.3,40,994.00,-2.8,58,3.43,0.0,1022.24,360.0
2018-04-17 09:00,50.630415,-96.9807633333333,4.2,5.6,58,993.85,-2.8,58,3.42,0.0,1022.10,360.0
2018-04-17 09:10,50.6304166666667,-96.9807633333333,4.2,6.1,51,993.79,-3.1,61,3.42,0.0,1022.08,360.0
2018-04-17 09:20,50.63043,-96.9807583333333,4.8,6.5,60,993.72,-3.3,61,3.42,0.0,1022.03,360.0
2018-04-17 09:30,50.6304333333333,-96.98076,4.2,5.4,44,993.69,-3.5,62,3.42,0.0,1022.01,360.0
2018-04-17 09:40,50.630435,-96.98076,4.5,6.2,52,993.67,-3.6,62,3.41,0.0,1022.00,360.0
2018-04-17 09:50,50.630435,-96.98076,5.4,7.2,73,993.59,-3.1,54,3.41,0.0,1021.88,360.0
2018-04-17 10:00,50.630435,-96.9807616666667,4.4,6.2,82,993.62,-2.7,53,3.41,0.0,1021.89,38.0
2018-04-17 10:10,50.630435,-96.98076,3.6,5.6,85,993.70,-3.1,57,3.41,0.0,1022.00,38.0
2018-04-17 10:20,50.6304366666667,-96.9807583333333,2.4,3.5,111,993.75,-3.4,59,3.40,0.0,1022.10,38.0
2018-04-17 10:30,50.630435,-96.9807583333333,2.6,5.7,150,993.86,-3.9,58,3.39,0.0,1022.25,38.0
2018-04-17 10:40,50.630435,-96.98076,2.8,5.5,153,993.93,-3.7,55,3.38,0.0,1022.30,38.0
2018-04-17 10:50,50.630435,-96.9807583333333,2.5,3.3,165,994.00,-3.9,54,3.38,0.0,1022.39,38.0
2018-04-17 11:00,50.6304383333333,-96.9807516666667,1.6,2.2,189,994.06,-3.7,53,3.38,0.0,1022.46,360.0
2018-04-17 11:10,50.63043,-96.9807533333333,1.5,3.8,166,994.14,-3.5,50,3.38,0.0,1022.54,360.0
2018-04-17 11:20,50.63043,-96.9807533333333,1.0,1.9,104,994.13,-2.8,50,3.37,0.0,1022.50,360.0
2018-04-17 11:30,50.6304316666667,-96.980755,1.1,2.0,97,994.22,-2.8,48,3.37,0.0,1022.60,360.0
2018-04-17 11:40,50.630395,-96.98076,1.1,1.7,92,994.19,-2.6,47,3.37,0.0,1022.54,360.0
2018-04-17 11:50,50.6304433333333,-96.9807516666667,1.2,2.1,86,994.18,-2.5,48,3.38,0.0,1022.49,360.0
2018-04-17 12:00,50.6304283333333,-96.9807516666667,1.0,2.3,88,994.26,-2.4,47,3.37,0.0,1022.59,36.6
2018-04-17 12:10,50.6304183333333,-96.9807483333333,1.8,3.3,83,994.45,-2.3,48,3.37,0.0,1022.80,36.6
2018-04-17 12:20,50.6304433333333,-96.980755,2.7,3.7,58,994.42,-2.7,49,3.36,0.0,1022.82,36.6
2018-04-17 12:30,50.630425,-96.9807483333333,4.5,6.2,55,994.43,-2.7,48,3.36,0.0,1022.81,36.6
2018-04-17 12:40,50.63043,-96.980755,5.9,6.5,47,994.48,-2.8,50,3.36,0.0,1022.89,36.6
2018-04-17 12:50,50.6304316666667,-96.9807516666667,7.0,7.5,41,994.53,-4.1,63,3.34,0.0,1023.00,36.6
2018-04-17 13:00,50.6304316666667,-96.9807533333333,6.6,7.3,35,994.46,-4.5,67,3.33,0.0,1022.93,131.7
2018-04-17 13:10,50.6304316666667,-96.980755,6.7,7.5,31,994.39,-4.6,70,3.33,0.0,1022.82,131.7
2018-04-17 13:20,50.63043,-96.9807533333333,7.6,8.5,44,994.38,-4.2,66,3.33,0.0,1022.80,131.7
2018-04-17 13:30,50.63043,-96.980755,5.3,7.2,33,994.44,-4.1,66,3.33,0.0,1022.84,131.7
2018-04-17 13:40,50.6304316666667,-96.980755,4.7,6.1,22,994.40,-3.9,67,3.33,0.0,1022.79,131.7
2018-04-17 13:50,50.6304316666667,-96.9807533333333,5.0,6.8,29,994.33,-3.9,71,3.33,0.0,1022.71,131.7
2018-04-17 14:00,50.6304316666667,-96.9807533333333,6.4,7.5,29,994.33,-4.0,73,3.33,0.0,1022.71,360.0
2018-04-17 14:10,50.6304316666667,-96.9807533333333,5.6,6.5,33,994.43,-3.9,73,3.33,0.0,1022.82,360.0
2018-04-17 14:20,50.6304316666667,-96.9807533333333,7.8,10.1,27,994.27,-3.6,72,3.33,0.0,1022.64,360.0
2018-04-17 14:30,50.6304316666667,-96.9807533333333,10.0,11.2,29,993.94,-3.5,72,3.33,0.0,1022.31,360.0
2018-04-17 14:40,50.63046,-96.9807566666667,9.3,10.7,26,993.85,-3.4,73,3.33,0.0,1022.27,360.0
2018-04-17 14:50,50.630445,-96.9807466666667,8.5,9.7,22,993.78,-3.2,71,3.32,0.0,1022.21,360.0
2018-04-17 15:00,50.63044,-96.98076,8.0,8.9,24,993.65,-2.9,69,3.32,0.0,1022.07,360.0
2018-04-17 15:10,50.6304283333333,-96.9807683333333,7.2,8.3,22,993.49,-2.6,69,3.32,0.0,1021.87,360.0
2018-04-17 15:20,50.6304333333333,-96.980765,8.1,9.5,27,993.20,-2.4,70,3.32,0.0,1021.56,360.0
2018-04-17 15:30,50.630435,-96.980765,7.7,9.1,27,993.08,-2.0,68,3.32,0.0,1021.41,360.0
2018-04-17 15:40,50.6304366666667,-96.9807666666667,7.1,7.8,24,993.11,-1.6,65,3.32,0.0,1021.41,360.0
2018-04-17 15:50,50.6304383333333,-96.9807683333333,7.0,8.0,18,993.13,-1.3,65,3.32,0.0,1021.43,360.0
2018-04-17 16:00,50.6304383333333,-96.9807683333333,6.8,7.8,14,993.11,-0.8,60,3.33,0.0,1021.36,323.4
2018-04-17 16:10,50.6304383333333,-96.9807666666667,7.0,8.0,22,993.09,-0.5,58,3.33,0.0,1021.32,323.4
2018-04-17 16:20,50.6304383333333,-96.9807666666667,8.7,10.4,24,992.96,-0.4,60,3.33,0.0,1021.18,323.4
2018-04-17 16:30,50.6304383333333,-96.9807666666667,9.7,11.2,19,992.79,-0.5,63,3.33,0.0,1020.99,323.4
2018-04-17 16:40,50.6304366666667,-96.9807666666667,10.3,12.0,19,992.53,-0.4,64,3.33,0.0,1020.71,323.4
2018-04-17 16:50,50.6304233333333,-96.9807733333333,9.9,11.6,18,992.32,-0.1,66,3.33,0.0,1020.47,323.4
2018-04-17 17:00,50.630425,-96.9807533333333,10.6,12.0,17,992.23,0.1,62,3.33,0.0,1020.35,142.0
2018-04-17 17:10,50.6304283333333,-96.9807533333333,9.8,11.3,18,992.18,0.5,59,3.32,0.0,1020.26,142.0
2018-04-17 17:20,50.6304283333333,-96.980755,8.6,10.4,15,992.12,0.8,57,3.32,0.0,1020.17,142.0
2018-04-17 17:30,50.6304283333333,-96.980755,8.3,10.3,11,992.11,1.1,56,3.31,0.0,1020.12,142.0
2018-04-17 17:40,50.6304283333333,-96.9807566666667,9.4,11.3,13,991.93,1.3,57,3.31,0.0,1019.91,142.0
2018-04-17 17:50,50.6304283333333,-96.9807566666667,10.0,11.9,10,991.87,1.4,55,3.31,0.0,1019.82,142.0
2018-04-17 18:00,50.6304283333333,-96.9807583333333,9.7,11.3,8,991.87,1.7,53,3.32,0.0,1019.78,360.0
2018-04-17 18:10,50.6304283333333,-96.98076,9.8,11.1,9,991.72,2.2,48,3.32,0.0,1019.60,360.0
2018-04-17 18:20,50.6304283333333,-96.9807616666667,9.4,10.4,9,991.58,2.9,45,3.32,0.0,1019.42,360.0
2018-04-17 18:30,50.6304283333333,-96.9807633333333,9.6,11.1,9,991.46,3.3,43,3.33,0.0,1019.27,360.0
2018-04-17 18:40,50.6304283333333,-96.980765,10.7,12.2,12,991.24,3.4,43,3.33,0.0,1019.03,360.0
2018-04-17 18:50,50.6304283333333,-96.9807766666667,10.3,12.0,10,991.24,3.4,45,3.34,0.0,1019.02,360.0
2018-04-17 19:00,50.630435,-96.980775,9.0,11.0,5,991.31,3.8,41,3.34,0.0,1019.05,192.6
2018-04-17 19:10,50.6304333333333,-96.98077,8.1,9.7,1,991.36,4.5,36,3.34,0.0,1019.05,192.6
2018-04-17 19:20,50.6304333333333,-96.9807716666667,9.9,11.7,4,991.27,4.7,35,3.34,0.0,1018.93,192.6
2018-04-17 19:30,50.6304333333333,-96.9807716666667,10.7,12.0,7,991.14,4.9,33,3.35,0.0,1018.78,192.6
2018-04-17 19:40,50.6304316666667,-96.98077,10.1,11.6,7,991.10,5.0,32,3.36,0.0,1018.73,192.6
2018-04-17 19:50,50.6304316666667,-96.98077,10.1,11.5,4,991.10,5.4,28,3.37,0.0,1018.69,192.6
2018-04-17 20:00,50.6304233333333,-96.9807666666667,10.0,11.9,4,991.00,5.6,27,3.37,0.0,1018.55,270.0
2018-04-17 20:10,50.6304233333333,-96.9807633333333,10.0,11.5,4,990.93,5.5,29,3.37,0.0,1018.45,270.0
2018-04-17 20:20,50.6304216666667,-96.9807633333333,11.1,12.6,3,990.88,5.5,28,3.38,0.0,1018.38,270.0
2018-04-17 20:30,50.6304266666667,-96.9807633333333,11.0,13.7,4,990.78,6.0,26,3.38,0.0,1018.25,270.0
2018-04-17 20:40,50.6304283333333,-96.9807633333333,11.1,13.6,6,990.74,6.1,28,3.39,0.0,1018.20,270.0
2018-04-17 20:50,50.6304383333333,-96.9807533333333,11.8,13.7,8,990.65,5.7,30,3.40,0.0,1018.10,270.0
2018-04-17 21:00,50.63044,-96.980755,11.7,13.6,6,990.63,6.1,27,3.40,0.0,1018.03,360.0
2018-04-17 21:10,50.6304183333333,-96.9807416666667,11.4,13.8,6,990.60,6.5,26,3.41,0.0,1017.98,360.0
2018-04-17 21:20,50.630435,-96.9807416666667,11.4,13.2,7,990.56,6.6,28,3.41,0.0,1017.92,360.0
2018-04-17 21:30,50.6304383333333,-96.9807466666667,12.9,14.8,10,990.50,6.3,29,3.42,0.0,1017.86,360.0
2018-04-17 21:40,50.6304383333333,-96.980745,13.3,15.1,9,990.41,6.2,30,3.42,0.0,1017.76,360.0
2018-04-17 21:50,50.6304366666667,-96.98075,12.6,14.2,11,990.41,6.3,30,3.43,0.0,1017.75,360.0
2018-04-17 22:00,50.630435,-96.9807516666667,12.5,14.8,12,990.48,6.1,33,3.44,0.0,1017.83,90.0
2018-04-17 22:10,50.6304366666667,-96.9807533333333,12.5,15.0,14,990.48,5.9,34,3.44,0.0,1017.84,90.0
2018-04-17 22:20,50.6304366666667,-96.980755,11.9,13.8,13,990.56,5.5,39,3.45,0.0,1017.91,90.0
2018-04-17 22:30,50.630435,-96.9807533333333,13.3,15.3,16,990.66,5.7,37,3.45,0.0,1018.00,90.0
2018-04-17 22:40,50.6304383333333,-96.9807516666667,13.7,14.8,18,990.78,4.7,48,3.46,0.0,1018.19,90.0
2018-04-17 22:50,50.6304383333333,-96.98075,13.0,14.0,17,990.83,4.8,45,3.46,0.0,1018.23,90.0
2018-04-17 23:00,50.6304366666667,-96.980755,12.3,14.7,16,990.93,5.3,42,3.46,0.0,1018.28,41.3
2018-04-17 23:10,50.6304383333333,-96.980755,13.6,14.7,15,990.90,4.8,46,3.47,0.0,1018.27,41.3
2018-04-17 23:20,50.6304716666667,-96.980745,12.5,13.9,16,991.06,4.4,48,3.47,0.0,1018.47,41.3
2018-04-17 23:30,50.6304183333333,-96.9807933333333,12.8,14.6,17,991.17,5.1,41,3.46,0.0,1018.55,41.3
2018-04-17 23:40,50.6304333333333,-96.9807566666667,12.8,13.7,18,991.31,4.5,46,3.46,0.0,1018.72,41.3
